Time,TemperatureF,DewpointF,PressureIn,WindDirection,WindDirectionDegrees,WindSpeedMPH,WindSpeedGustMPH,Humidity,HourlyPrecipIn,Conditions,Clouds,dailyrainin,SolarRadiationWatts/m^2,SoftwareType,DateUTC
2013-02-07 00:01:00,20.0,11.0,-100.00,South,185,7.0,10.0,67,0.00,,,0.00,17.000000,,2013-02-07 00:01:00,
2013-02-07 00:32:00,19.0,14.0,-100.00,South,187,4.0,9.0,82,0.00,,,0.00,0.000000,,2013-02-07 00:32:00,
2013-02-07 00:42:00,19.0,14.0,-100.00,South,187,4.0,9.0,82,0.00,,,0.00,0.000000,,2013-02-07 00:42:00,
2013-02-07 00:52:00,19.0,14.0,-100.00,South,187,4.0,9.0,82,0.00,,,0.00,0.000000,,2013-02-07 00:52:00,
2013-02-07 01:01:00,19.0,14.0,-100.00,South,187,4.0,9.0,82,0.00,,,0.00,0.000000,,2013-02-07 01:01:00,
2013-02-07 01:21:00,19.0,16.0,-100.00,SE,143,3.0,5.0,87,0.00,,,0.00,0.000000,,2013-02-07 01:21:00,
2013-02-07 01:32:00,19.0,16.0,-100.00,SE,143,3.0,5.0,87,0.00,,,0.00,0.000000,,2013-02-07 01:32:00,
2013-02-07 01:42:00,19.0,16.0,-100.00,SE,143,3.0,5.0,87,0.00,,,0.00,0.000000,,2013-02-07 01:42:00,
2013-02-07 01:52:00,19.0,16.0,-100.00,SE,143,3.0,5.0,87,0.00,,,0.00,0.000000,,2013-02-07 01:52:00,
2013-02-07 02:01:00,19.0,16.0,-100.00,SE,143,3.0,5.0,87,0.00,,,0.00,0.000000,,2013-02-07 02:01:00,
2013-02-07 02:32:00,19.0,16.0,-100.00,ESE,109,3.0,5.0,87,0.00,,,0.00,0.000000,,2013-02-07 02:32:00,
2013-02-07 02:42:00,19.0,16.0,-100.00,ESE,109,3.0,5.0,87,0.00,,,0.00,0.000000,,2013-02-07 02:42:00,
2013-02-07 02:52:00,19.0,16.0,-100.00,ESE,109,3.0,5.0,87,0.00,,,0.00,0.000000,,2013-02-07 02:52:00,
2013-02-07 03:02:00,19.0,16.0,-100.00,ESE,109,3.0,5.0,87,0.00,,,0.00,0.000000,,2013-02-07 03:02:00,
2013-02-07 03:22:00,19.0,16.0,-100.00,SSE,147,2.0,4.0,87,0.00,,,0.00,0.000000,,2013-02-07 03:22:00,
2013-02-07 03:32:00,19.0,16.0,-100.00,SSE,147,2.0,4.0,87,0.00,,,0.00,0.000000,,2013-02-07 03:32:00,
2013-02-07 03:42:00,19.0,16.0,-100.00,SSE,147,2.0,4.0,87,0.00,,,0.00,0.000000,,2013-02-07 03:42:00,
2013-02-07 03:52:00,19.0,16.0,-100.00,SSE,147,2.0,4.0,87,0.00,,,0.00,0.000000,,2013-02-07 03:52:00,
2013-02-07 04:01:00,19.0,16.0,-100.00,SSE,147,2.0,4.0,87,0.00,,,0.00,0.000000,,2013-02-07 04:01:00,
2013-02-07 04:22:00,19.0,16.0,-100.00,ENE,59,2.0,4.0,88,0.00,,,0.00,0.000000,,2013-02-07 04:22:00,
2013-02-07 04:32:00,19.0,16.0,-100.00,ENE,59,2.0,4.0,88,0.00,,,0.00,0.000000,,2013-02-07 04:32:00,
2013-02-07 04:42:00,19.0,16.0,-100.00,ENE,59,2.0,4.0,88,0.00,,,0.00,0.000000,,2013-02-07 04:42:00,
2013-02-07 04:53:00,19.0,16.0,-100.00,ENE,59,2.0,4.0,88,0.00,,,0.00,0.000000,,2013-02-07 04:53:00,
2013-02-07 05:02:00,19.0,16.0,-100.00,ENE,59,2.0,4.0,88,0.00,,,0.00,0.000000,,2013-02-07 05:02:00,
2013-02-07 05:22:00,19.0,16.0,-100.00,ENE,68,4.0,6.0,87,0.00,,,0.00,0.000000,,2013-02-07 05:22:00,
2013-02-07 05:32:00,19.0,16.0,-100.00,ENE,68,4.0,6.0,87,0.00,,,0.00,0.000000,,2013-02-07 05:32:00,
2013-02-07 05:42:00,19.0,16.0,-100.00,ENE,68,4.0,6.0,87,0.00,,,0.00,0.000000,,2013-02-07 05:42:00,
2013-02-07 05:52:00,19.0,16.0,-100.00,ENE,68,4.0,6.0,87,0.00,,,0.00,0.000000,,2013-02-07 05:52:00,
2013-02-07 06:02:00,19.0,16.0,-100.00,ENE,68,4.0,6.0,87,0.00,,,0.00,0.000000,,2013-02-07 06:02:00,
2013-02-07 06:32:00,19.0,16.0,-100.00,NE,43,4.0,6.0,88,0.00,,,0.00,0.000000,,2013-02-07 06:32:00,
2013-02-07 06:43:00,19.0,16.0,-100.00,NE,43,4.0,6.0,88,0.00,,,0.00,0.000000,,2013-02-07 06:43:00,
2013-02-07 06:52:00,19.0,16.0,-100.00,NE,43,4.0,6.0,88,0.00,,,0.00,0.000000,,2013-02-07 06:52:00,
2013-02-07 07:01:00,19.0,16.0,-100.00,NE,43,4.0,6.0,88,0.00,,,0.00,0.000000,,2013-02-07 07:01:00,
2013-02-07 07:32:00,20.0,18.0,-100.00,ENE,63,4.0,6.0,90,0.00,,,0.00,0.000000,,2013-02-07 07:32:00,
2013-02-07 07:42:00,20.0,18.0,-100.00,ENE,63,4.0,6.0,90,0.00,,,0.00,0.000000,,2013-02-07 07:42:00,
2013-02-07 07:52:00,20.0,18.0,-100.00,ENE,63,4.0,6.0,90,0.00,,,0.00,0.000000,,2013-02-07 07:52:00,
2013-02-07 08:01:00,20.0,18.0,-100.00,ENE,63,4.0,6.0,90,0.00,,,0.00,0.000000,,2013-02-07 08:01:00,
2013-02-07 08:32:00,20.0,18.0,-100.00,NE,37,5.0,8.0,90,0.00,,,0.00,0.000000,,2013-02-07 08:32:00,
2013-02-07 08:42:00,20.0,18.0,-100.00,NE,37,5.0,8.0,90,0.00,,,0.00,0.000000,,2013-02-07 08:42:00,
2013-02-07 08:52:00,20.0,18.0,-100.00,NE,37,5.0,8.0,90,0.00,,,0.00,0.000000,,2013-02-07 08:52:00,
2013-02-07 09:01:00,20.0,18.0,-100.00,NE,37,5.0,8.0,90,0.00,,,0.00,0.000000,,2013-02-07 09:01:00,
2013-02-07 09:32:00,20.0,17.0,-100.00,NE,54,5.0,9.0,89,0.00,,,0.00,0.000000,,2013-02-07 09:32:00,
2013-02-07 09:42:00,20.0,17.0,-100.00,NE,54,5.0,9.0,89,0.00,,,0.00,0.000000,,2013-02-07 09:42:00,
2013-02-07 09:52:00,20.0,17.0,-100.00,NE,54,5.0,9.0,89,0.00,,,0.00,0.000000,,2013-02-07 09:52:00,
2013-02-07 10:01:00,20.0,17.0,-100.00,NE,54,5.0,9.0,89,0.00,,,0.00,0.000000,,2013-02-07 10:01:00,
2013-02-07 10:22:00,20.0,17.0,-100.00,ENE,57,4.0,8.0,88,0.00,,,0.00,0.000000,,2013-02-07 10:22:00,
2013-02-07 10:32:00,20.0,17.0,-100.00,ENE,57,4.0,8.0,88,0.00,,,0.00,0.000000,,2013-02-07 10:32:00,
2013-02-07 10:42:00,20.0,17.0,-100.00,ENE,57,4.0,8.0,88,0.00,,,0.00,0.000000,,2013-02-07 10:42:00,
2013-02-07 10:52:00,20.0,17.0,-100.00,ENE,57,4.0,8.0,88,0.00,,,0.00,0.000000,,2013-02-07 10:52:00,
2013-02-07 11:01:00,20.0,17.0,-100.00,ENE,57,4.0,8.0,88,0.00,,,0.00,0.000000,,2013-02-07 11:01:00,
2013-02-07 11:23:00,20.0,17.0,-100.00,ENE,71,5.0,8.0,87,0.00,,,0.00,0.000000,,2013-02-07 11:23:00,
2013-02-07 11:32:00,20.0,17.0,-100.00,ENE,71,5.0,8.0,87,0.00,,,0.00,0.000000,,2013-02-07 11:32:00,
2013-02-07 11:44:00,20.0,17.0,-100.00,ENE,71,5.0,8.0,87,0.00,,,0.00,0.000000,,2013-02-07 11:44:00,
2013-02-07 11:52:00,20.0,17.0,-100.00,ENE,71,5.0,8.0,87,0.00,,,0.00,0.000000,,2013-02-07 11:52:00,
2013-02-07 12:02:00,20.0,17.0,-100.00,ENE,71,5.0,8.0,87,0.00,,,0.00,0.000000,,2013-02-07 12:02:00,
2013-02-07 12:33:00,20.0,17.0,-100.00,ENE,62,6.0,10.0,87,0.00,,,0.00,0.000000,,2013-02-07 12:33:00,
2013-02-07 12:42:00,20.0,17.0,-100.00,ENE,62,6.0,10.0,87,0.00,,,0.00,0.000000,,2013-02-07 12:42:00,
2013-02-07 12:53:00,20.0,17.0,-100.00,ENE,62,6.0,10.0,87,0.00,,,0.00,0.000000,,2013-02-07 12:53:00,
2013-02-07 13:02:00,20.0,17.0,-100.00,ENE,62,6.0,10.0,87,0.00,,,0.00,0.000000,,2013-02-07 13:02:00,
2013-02-07 13:22:00,20.0,17.0,-100.00,NE,54,5.0,10.0,89,0.00,,,0.00,0.000000,,2013-02-07 13:22:00,
2013-02-07 13:32:00,20.0,17.0,-100.00,NE,54,5.0,10.0,89,0.00,,,0.00,0.000000,,2013-02-07 13:32:00,
2013-02-07 13:42:00,20.0,17.0,-100.00,NE,54,5.0,10.0,89,0.00,,,0.00,0.000000,,2013-02-07 13:42:00,
2013-02-07 13:52:00,20.0,17.0,-100.00,NE,54,5.0,10.0,89,0.00,,,0.00,0.000000,,2013-02-07 13:52:00,
2013-02-07 14:01:00,20.0,17.0,-100.00,NE,54,5.0,10.0,89,0.00,,,0.00,0.000000,,2013-02-07 14:01:00,
2013-02-07 14:32:00,20.0,17.0,-100.00,ENE,59,6.0,10.0,89,0.00,,,0.00,3.000000,,2013-02-07 14:32:00,
2013-02-07 14:42:00,20.0,17.0,-100.00,ENE,59,6.0,10.0,89,0.00,,,0.00,3.000000,,2013-02-07 14:42:00,
2013-02-07 14:52:00,20.0,17.0,-100.00,ENE,59,6.0,10.0,89,0.00,,,0.00,3.000000,,2013-02-07 14:52:00,
2013-02-07 15:02:00,20.0,17.0,-100.00,ENE,59,6.0,10.0,89,0.00,,,0.00,3.000000,,2013-02-07 15:02:00,
2013-02-07 15:22:00,20.0,17.0,-100.00,NE,51,6.0,10.0,89,0.00,,,0.00,16.000000,,2013-02-07 15:22:00,
2013-02-07 15:32:00,20.0,17.0,-100.00,NE,51,6.0,10.0,89,0.00,,,0.00,16.000000,,2013-02-07 15:32:00,
2013-02-07 15:42:00,20.0,17.0,-100.00,NE,51,6.0,10.0,89,0.00,,,0.00,16.000000,,2013-02-07 15:42:00,
2013-02-07 15:52:00,20.0,17.0,-100.00,NE,51,6.0,10.0,89,0.00,,,0.00,16.000000,,2013-02-07 15:52:00,
2013-02-07 16:01:00,20.0,17.0,-100.00,NE,51,6.0,10.0,89,0.00,,,0.00,16.000000,,2013-02-07 16:01:00,
2013-02-07 16:32:00,20.0,17.0,-100.00,ENE,58,6.0,12.0,88,0.00,,,0.00,36.000000,,2013-02-07 16:32:00,
2013-02-07 16:42:00,20.0,17.0,-100.00,ENE,58,6.0,12.0,88,0.00,,,0.00,36.000000,,2013-02-07 16:42:00,
2013-02-07 16:52:00,20.0,17.0,-100.00,ENE,58,6.0,12.0,88,0.00,,,0.00,36.000000,,2013-02-07 16:52:00,
2013-02-07 17:01:00,20.0,17.0,-100.00,ENE,58,6.0,12.0,88,0.00,,,0.00,36.000000,,2013-02-07 17:01:00,
2013-02-07 17:32:00,20.0,16.0,-100.00,NE,55,6.0,13.0,85,0.00,,,0.00,57.000000,,2013-02-07 17:32:00,
2013-02-07 17:43:00,20.0,16.0,-100.00,NE,55,6.0,13.0,85,0.00,,,0.00,57.000000,,2013-02-07 17:43:00,
2013-02-07 17:52:00,20.0,16.0,-100.00,NE,55,6.0,13.0,85,0.00,,,0.00,57.000000,,2013-02-07 17:52:00,
2013-02-07 18:01:00,20.0,16.0,-100.00,NE,55,6.0,13.0,85,0.00,,,0.00,57.000000,,2013-02-07 18:01:00,
2013-02-07 18:23:00,20.0,16.0,-100.00,NE,38,6.0,11.0,86,0.00,,,0.00,52.000000,,2013-02-07 18:23:00,
2013-02-07 18:32:00,20.0,16.0,-100.00,NE,38,6.0,11.0,86,0.00,,,0.00,52.000000,,2013-02-07 18:32:00,
2013-02-07 18:42:00,20.0,16.0,-100.00,NE,38,6.0,11.0,86,0.00,,,0.00,52.000000,,2013-02-07 18:42:00,
2013-02-07 18:52:00,20.0,16.0,-100.00,NE,38,6.0,11.0,86,0.00,,,0.00,52.000000,,2013-02-07 18:52:00,
2013-02-07 19:01:00,20.0,16.0,-100.00,NE,38,6.0,11.0,86,0.00,,,0.00,52.000000,,2013-02-07 19:01:00,
2013-02-07 19:32:00,20.0,16.0,-100.00,NE,42,8.0,12.0,85,0.00,,,0.00,67.000000,,2013-02-07 19:32:00,
2013-02-07 19:42:00,20.0,16.0,-100.00,NE,42,8.0,12.0,85,0.00,,,0.00,67.000000,,2013-02-07 19:42:00,
2013-02-07 19:52:00,20.0,16.0,-100.00,NE,42,8.0,12.0,85,0.00,,,0.00,67.000000,,2013-02-07 19:52:00,
2013-02-07 20:01:00,20.0,16.0,-100.00,NE,42,8.0,12.0,85,0.00,,,0.00,67.000000,,2013-02-07 20:01:00,
2013-02-07 20:22:00,19.0,15.0,-100.00,NE,37,7.0,13.0,84,0.00,,,0.00,57.000000,,2013-02-07 20:22:00,
2013-02-07 20:32:00,19.0,15.0,-100.00,NE,37,7.0,13.0,84,0.00,,,0.00,57.000000,,2013-02-07 20:32:00,
2013-02-07 20:42:00,19.0,15.0,-100.00,NE,37,7.0,13.0,84,0.00,,,0.00,57.000000,,2013-02-07 20:42:00,
2013-02-07 20:52:00,19.0,15.0,-100.00,NE,37,7.0,13.0,84,0.00,,,0.00,57.000000,,2013-02-07 20:52:00,
2013-02-07 21:02:00,19.0,15.0,-100.00,NE,37,7.0,13.0,84,0.00,,,0.00,57.000000,,2013-02-07 21:02:00,
2013-02-07 21:32:00,19.0,15.0,-100.00,NE,45,6.0,13.0,84,0.00,,,0.00,25.000000,,2013-02-07 21:32:00,
2013-02-07 21:42:00,19.0,15.0,-100.00,NE,45,6.0,13.0,84,0.00,,,0.00,25.000000,,2013-02-07 21:42:00,
2013-02-07 21:52:00,19.0,15.0,-100.00,NE,45,6.0,13.0,84,0.00,,,0.00,25.000000,,2013-02-07 21:52:00,
2013-02-07 22:02:00,19.0,15.0,-100.00,NE,45,6.0,13.0,84,0.00,,,0.00,25.000000,,2013-02-07 22:02:00,
2013-02-07 22:32:00,19.0,16.0,-100.00,NE,41,8.0,13.0,87,0.00,,,0.00,16.000000,,2013-02-07 22:32:00,
2013-02-07 22:42:00,19.0,16.0,-100.00,NE,41,8.0,13.0,87,0.00,,,0.00,16.000000,,2013-02-07 22:42:00,
2013-02-07 22:52:00,19.0,16.0,-100.00,NE,41,8.0,13.0,87,0.00,,,0.00,16.000000,,2013-02-07 22:52:00,
2013-02-07 23:01:00,19.0,16.0,-100.00,NE,41,8.0,13.0,87,0.00,,,0.00,16.000000,,2013-02-07 23:01:00,
2013-02-07 23:32:00,19.0,16.0,-100.00,NNE,33,8.0,12.0,88,0.00,,,0.00,4.000000,,2013-02-07 23:32:00,
2013-02-07 23:42:00,19.0,16.0,-100.00,NNE,33,8.0,12.0,88,0.00,,,0.00,4.000000,,2013-02-07 23:42:00,
2013-02-07 23:52:00,19.0,16.0,-100.00,NNE,33,8.0,12.0,88,0.00,,,0.00,4.000000,,2013-02-07 23:52:00,